Voltar ao catálogo

STARLINK-6079

AtivoComunicaçõesVLEO
NORAD 56120·PAYLOAD·🇺🇸 United States

Lançado Mar 29, 2023 de Cape Canaveral Space Force Station

Loading…

Próximas Passagens (próximas 24 horas)

TLE

AtualizadoSource: CelesTrak SupGP

Época: Sep 14, 2026, 22:02 UTC

1 56120C 23046AD  26257.91854167 -.00060730  00000+0 -21993-2 0  2572
2 56120  43.0007 158.5907 0000792 246.8840 241.1883 15.27614951    14

Acompanhe STARLINK-6079 em tempo real com AllMySat

Download on the App Store